CW5586 Lerum SE current weather conditions

sailwx.info

Wind from 231 at 5 knots gusting 8

Air temperature 14.4° C
Dewpoint 11.0° C

Last reported at 2019-Sep-20 15:46 UTC.
Time now 2019-Sep-20 17:00 UTC

Location: N 57°47' E 012°15'.
View on Google Maps.

See reports from other nearby stations

  
Tides and Currents Weather Stations Pressure Air Temp Water Temp Dewpoint Dewpoint Depression Visibility Wind Speed Wind Dir Waves Ship Positions
date/time (UTC)wind fromknots sea level pressurealtimeterstation pressurevisibilityair tempwater tempwave heightnotes
2019-Sep-20 15:46 231 5 gusting 8 14.4
2019-Sep-20 15:16 227 2 gusting 6 15.0
2019-Sep-20 15:11 228 2 gusting 6 15.0
2019-Sep-20 15:01 205 2 gusting 8 15.0
2019-Sep-20 14:46 217 5 gusting 10 15.0
2019-Sep-20 14:16 197 2 gusting 6 15.6
2019-Sep-20 13:36 270 1 gusting 8 16.1
2019-Sep-20 13:16 280 2 gusting 8 16.1
2019-Sep-20 13:11 242 4 gusting 10 16.1
2019-Sep-20 12:46 217 3 gusting 10 16.1
2019-Sep-20 12:41 271 3 gusting 8 15.6
2019-Sep-20 12:31 276 3 gusting 8 15.6
2019-Sep-20 12:16 269 3 gusting 8 15.6
2019-Sep-20 12:06 205 2 gusting 8 15.0
2019-Sep-20 11:41 231 4 gusting 10 15.0
2019-Sep-20 11:31 261 3 gusting 11 15.0
2019-Sep-20 11:16 213 4 gusting 11 15.0
2019-Sep-20 11:06 210 5 gusting 11 14.4
2019-Sep-20 11:01 237 6 gusting 12 14.4
2019-Sep-20 10:36 258 4 gusting 10 13.9
2019-Sep-20 10:11 226 3 gusting 6 13.3
2019-Sep-20 10:06 292 0 gusting 2 13.3
2019-Sep-20 09:46 252 3 gusting 7 13.3
2019-Sep-20 09:11 219 0 gusting 11 12.8
2019-Sep-20 09:06 188 2 gusting 4 12.8
2019-Sep-20 09:01 220 2 gusting 8 12.8
2019-Sep-20 08:46 211 2 gusting 7 13.3
2019-Sep-20 08:31 225 5 gusting 10 12.8
2019-Sep-20 08:01 165 11.1
2019-Sep-20 07:36 171 10.6
2019-Sep-20 07:16 142 9.4
2019-Sep-20 06:46 138 8.3
2019-Sep-20 06:36 138 8.3
2019-Sep-20 06:31 138 8.3
2019-Sep-20 06:11 138 7.2
2019-Sep-20 06:01 140 7.2
2019-Sep-20 05:46 140 6.7
2019-Sep-20 05:41 140 6.7
2019-Sep-20 05:11 140 6.7
2019-Sep-20 05:06 140 6.7
2019-Sep-20 04:06 140 6.7
2019-Sep-20 04:01 140 6.7
2019-Sep-20 03:31 140 6.7
2019-Sep-20 03:16 140 6.7
2019-Sep-20 02:46 140 6.7
2019-Sep-20 02:41 140 6.7
2019-Sep-20 02:36 176 6.1
2019-Sep-20 02:01 189 6.1
2019-Sep-20 01:41 189 6.1
2019-Sep-20 01:36 189 6.1
2019-Sep-20 01:31 189 6.7
2019-Sep-20 01:16 189 6.7
2019-Sep-20 01:06 189 6.7
2019-Sep-20 01:01 217 6.7
2019-Sep-20 00:46 217 6.7
2019-Sep-20 00:31 217 6.7
2019-Sep-20 00:16 309 6.1
2019-Sep-19 23:46 309 6.1
2019-Sep-19 23:36 309 6.1
2019-Sep-19 23:31 309 6.1
2019-Sep-19 23:06 309 6.1
2019-Sep-19 23:01 309 5.6
2019-Sep-19 22:16 309 5.0
2019-Sep-19 22:11 309 5.0
2019-Sep-19 21:31 309 5.0
2019-Sep-19 21:16 309 4.4
2019-Sep-19 21:11 309 4.4
2019-Sep-19 20:41 309 5.0
2019-Sep-19 20:36 309 5.0
2019-Sep-19 20:16 309 5.0
2019-Sep-19 20:06 309 5.0
2019-Sep-19 19:46 309 5.0
2019-Sep-19 19:36 308 5.0
2019-Sep-19 19:31 304 5.6
2019-Sep-19 19:16 304 5.6
2019-Sep-19 19:01 304 6.1
2019-Sep-19 18:41 304 6.7
2019-Sep-19 18:31 304 6.7
2019-Sep-19 18:16 304 6.7
2019-Sep-19 18:11 304 6.7
2019-Sep-19 17:36 304 7.8
2019-Sep-19 17:11 304 9.4
2019-Sep-19 16:46 304 10.0
2019-Sep-19 16:31 304 10.6
2019-Sep-19 16:16 347 0 gusting 2 10.6
2019-Sep-19 16:06 283 2 gusting 4 10.6
2019-Sep-19 16:01 269 1 gusting 5 11.1
2019-Sep-19 15:31 287 2 gusting 7 11.1
2019-Sep-19 15:16 222 2 gusting 5 11.1
2019-Sep-19 14:16 257 2 gusting 8 11.1
2019-Sep-19 14:11 288 2 gusting 5 11.1
2019-Sep-19 14:06 281 4 gusting 7 11.1
2019-Sep-19 13:41 279 2 gusting 4 11.7
2019-Sep-19 13:36 273 2 gusting 5 11.7
2019-Sep-19 13:06 294 3 gusting 8 11.7
2019-Sep-19 12:01 225 4 gusting 10 11.7
2019-Sep-19 11:31 294 1 gusting 6 12.2
2019-Sep-19 11:16 286 3 gusting 7 12.2
2019-Sep-19 10:46 315 1 gusting 5 11.7
2019-Sep-19 10:41 350 2 gusting 6 11.7
2019-Sep-19 10:36 339 2 gusting 7 11.7
2019-Sep-19 10:01 290 4 gusting 11 11.1
2019-Sep-19 09:46 321 4 gusting 8 11.1
2019-Sep-19 09:36 343 3 gusting 7 11.1
2019-Sep-19 09:31 019 4 gusting 10 11.1
2019-Sep-19 08:31 355 3 gusting 7 9.4
2019-Sep-19 08:16 315 3 gusting 6 8.9
2019-Sep-19 08:11 348 3 gusting 5 8.9
2019-Sep-19 07:46 041 2 gusting 4 8.3
2019-Sep-19 07:31 005 2 gusting 5 7.8
2019-Sep-19 07:11 010 0 gusting 4 7.2
2019-Sep-19 06:46 350 5.6
2019-Sep-19 06:11 038 5.0
2019-Sep-19 06:01 340 5.0
2019-Sep-19 05:31 340 3.9
2019-Sep-19 05:01 330 3.9
2019-Sep-19 04:41 330 3.9
2019-Sep-19 04:36 330 3.9
2019-Sep-19 04:11 306 4.4
2019-Sep-19 04:06 306 5.0
2019-Sep-19 03:36 5.0
2019-Sep-19 03:31 343 2 gusting 6 5.6
2019-Sep-19 03:11 352 4 gusting 6 5.0
2019-Sep-19 03:06 347 2 gusting 5 5.0
2019-Sep-19 03:01 339 2 gusting 5 5.0
2019-Sep-19 02:41 340 1 gusting 2 5.0
2019-Sep-19 02:11 329 3 gusting 5 6.1
2019-Sep-19 02:06 338 1 gusting 4 6.1
2019-Sep-19 01:41 338 1 gusting 4 6.1
2019-Sep-19 01:36 339 2 gusting 5 6.7
2019-Sep-19 01:16 336 3 gusting 6 6.7
2019-Sep-19 00:16 344 2 gusting 2 7.2
2019-Sep-18 23:41 323 2 gusting 4 6.7
2019-Sep-18 23:16 319 1 gusting 2 7.2
2019-Sep-18 23:11 319 1 gusting 2 7.2
2019-Sep-18 23:01 319 1 gusting 2 7.2
2019-Sep-18 22:41 317 7.2
2019-Sep-18 22:06 303 1 gusting 2 7.8
2019-Sep-18 22:01 304 0 gusting 2 7.8
2019-Sep-18 21:41 301 1 gusting 2 7.8
2019-Sep-18 21:16 314 1 gusting 2 7.8
2019-Sep-18 21:11 316 1 gusting 4 7.8
2019-Sep-18 21:06 298 1 gusting 2 7.2
2019-Sep-18 20:46 308 7.2
2019-Sep-18 20:41 308 7.2
2019-Sep-18 20:36 308 7.2
2019-Sep-18 20:16 298 1 gusting 2 7.8
2019-Sep-18 20:06 323 1 gusting 4 7.8
2019-Sep-18 20:01 325 2 gusting 5 7.8
2019-Sep-18 19:36 301 1 gusting 2 7.8
2019-Sep-18 19:31 309 1 gusting 2 7.8
2019-Sep-18 18:46 319 0 gusting 2 8.3
2019-Sep-18 18:41 318 8.3
2019-Sep-18 18:36 318 8.3
2019-Sep-18 18:16 318 8.9
2019-Sep-18 18:11 318 9.4
2019-Sep-18 17:01 309 1 gusting 6 11.1